Regional Weather Roundup
Issued by NWS Midland/Odessa, TX

Skip options and go directly to product.
Home | Oldest Version | Previous Version | Current Version | All | Text Only | Save Text | Print | Product List | Glossary Off

Skip product version selection by date and time.   

413
ASUS44 KMAF 190402
RWRMAF
MIDLAND AREA WEATHER ROUNDUP
NATIONAL WEATHER SERVICE MIDLAND TX
1100 PM CDT THU SEP 18 2014

...IN SOUTHWEST TEXAS AND SOUTHEAST NEW MEXICO...

CITY           SKY/WX    TMP DP  RH WIND       PRES   REMARKS
ALPINE         CLOUDY    69  66  90 CALM      30.09S
ANDREWS        CLOUDY    68  68  98 E10       29.99F
ARTESIA        NOT AVBL
BIG SPRING     CLOUDY    74  70  87 E7        30.00R
CARLSBAD       HVY RAIN  70  32  24 CALM      29.97S
DRYDEN           N/A     81  72  74 CALM      29.91R
FORT STOCKTON  MOCLDY    72  69  90 E14       29.95S
GUAD PASS      CLOUDY    64  63  96 NE24      30.08R FOG
HOBBS          CLOUDY    66  66 100 E10       30.03R
MARFA          MOCLDY    68  64  88 E6        30.07S
MIDLAND AIRPK  CLOUDY    73  70  92 SE7       30.00R
MIDLAND INTL   LGT RAIN  71  69  93 SE13      29.97S
ODESSA         CLOUDY    71  68  90 E14       29.99S
PECOS          CLOUDY    72  68  88 E14       29.93S
PRESIDIO       FAIR      78  67  67 NE15G22   29.89R
SEMINOLE       CLOUDY    67  66  96 E8        30.01F
SNYDER         CLOUDY    68  66  92 E3        30.01R
WINK           MOCLDY    73  69  87 E12       29.94R
$$
...OTHER STATIONS IN TEXAS...

CITY           SKY/WX    TMP DP  RH WIND       PRES   REMARKS
ABILENE        CLOUDY    73  70  90 SE5       29.98R
AMARILLO       PTCLDY    65  60  84 S10       30.06R
AUSTIN         CLOUDY    76  76 100 NW6       29.91S
BROWNSVILLE    PTCLDY    81  78  91 E6        29.85R
CORPUS CHRISTI PTCLDY    80  76  87 SE8       29.85R
DALLAS FTW     CLOUDY    77  69  76 S7        29.93R
DEL RIO        CLOUDY    86  70  58 SE6       29.84R
EL PASO        LGT RAIN  67  65  93 N6        29.99R
HOUSTON INT    CLOUDY    74  73  97 E7        29.89R
LUBBOCK        CLOUDY    68  65  90 SE9       30.03R
SAN ANGELO     CLOUDY    72  69  90 E6        29.95F
SAN ANTONIO    CLOUDY    77  72  84 E7        29.92R
WACO           CLOUDY    74  72  93 E3        29.91S
WICHITA FALLS  NOT AVBL
$$
...OTHER LOCATIONS IN NEW MEXICO...

CITY           SKY/WX    TMP DP  RH WIND       PRES   REMARKS
ALAMAGORDO     CLOUDY    66  66 100 CALM      30.01S
ALBUQUERQUE    MOCLDY    67  57  70 S5        30.07R
CANNON AFB     CLOUDY    64  64 100 SE9       30.07R
CLOVIS           N/A     64  61  88 S8        30.09S
HOLLOMAN AFB   NOT AVBL
ROSWELL        LGT RAIN  69  66  90 S3        30.00R
RUIDOSO        CLOUDY    57  55  94 E5        30.18S
SANTA FE       CLEAR     65  53  65 S12       30.12R
TRUTH OR CONSE PTCLDY    66  63  90 S3        30.02R
TUCUMCARI      MOCLDY    67  61  81 E3        30.05R
$$

USA.gov is the U.S. government's official web portal to all federal, state and local government web resources and services.